Weather History for San Luis Obispo, CA

Change the Weather History Date:

Wednesday, November 20, 2013

  Actual Average Record
Temperature  
Mean Temperature 60 °F -  
Max Temperature 66 °F 68 °F 86 °F (2005)
Min Temperature 53 °F 44 °F 28 °F (2000)
Degree Days  
Heating Degree Days 6    
Growing Degree Days 10 (Base 50)    
Moisture  
Dew Point 55 °F    
Average Humidity 88    
Maximum Humidity 100    
Minimum Humidity 63    
Precipitation  
Precipitation 0.16 in - - ()
Sea Level Pressure  
Sea Level Pressure 29.91 in    
Wind  
Wind Speed 1 mph (WNW)    
Max Wind Speed 10 mph    
Max Gust Speed -    
Visibility 7 miles    
Events Rain    
Averages and records for this station are not official NWS values.
T = Trace of Precipitation, MM = Missing Value Source: NWS Daily Summary

Daily Weather History Graph

Daily Weather History Graph

Search for Another Location

Airport:

Trip Planner

Search our weather history database for the weather conditions in past years. The results will help you decide how hot, cold, wet, or windy it might be!

Date:

Astronomy

Nov. 20, 2013 Rise Set
Actual Time 6:42 AM PST 4:53 PM PST
Civil Twilight 6:15 AM PST 5:20 PM PST
Nautical Twilight 5:44 AM PST 5:51 PM PST
Astronomical Twilight 5:14 AM PST 6:22 PM PST
Moon 7:40 PM PST (11/20) 9:11 AM PST (11/20)
Length of Visible Light 11h 05m
Length of Day
10h 10m
Waning Gibbous, 91% of the Moon is Illuminated
Nov 20
Waning Gibbous
Nov 25
Last Quarter
Dec 2
New
Dec 9
First Quarter
Dec 17
Full

Hourly Weather History & Observations

Time (PST) Temp. Dew Point Humidity Pressure Visibility Wind Dir Wind Speed Gust Speed Precip Events Conditions
12:32 AM 55.4 °F 51.8 °F 88% 30.00 in 10.0 mi Calm Calm - N/A   Overcast
12:56 AM 55.0 °F 51.1 °F 86% 29.99 in 10.0 mi Calm Calm - N/A   Overcast
1:56 AM 54.0 °F 50.0 °F 86% 29.98 in 10.0 mi Calm Calm - N/A   Overcast
2:56 AM 54.0 °F 51.1 °F 90% 29.97 in 10.0 mi Calm Calm - 0.00 in   Overcast
3:56 AM 54.0 °F 51.1 °F 90% 29.96 in 10.0 mi Calm Calm - 0.00 in Rain Light Rain
4:56 AM 54.0 °F 51.1 °F 90% 29.95 in 9.0 mi ESE 4.6 mph - 0.01 in   Overcast
5:56 AM 54.0 °F 52.0 °F 93% 29.96 in 10.0 mi Calm Calm - 0.00 in Rain Light Rain
6:53 AM 53.6 °F 51.8 °F 94% 29.96 in 6.0 mi Calm Calm - 0.00 in Rain Light Rain
6:56 AM 54.0 °F 52.0 °F 93% 29.96 in 6.0 mi Calm Calm - 0.00 in Rain Light Rain
7:56 AM 55.0 °F 52.0 °F 89% 29.96 in 10.0 mi Calm Calm - 0.01 in   Overcast
8:56 AM 57.0 °F 53.1 °F 87% 29.96 in 10.0 mi Calm Calm - 0.00 in   Overcast
9:56 AM 63.0 °F 55.0 °F 75% 29.95 in 10.0 mi Calm Calm - N/A   Mostly Cloudy
10:56 AM 66.0 °F 54.0 °F 65% 29.92 in 10.0 mi ESE 4.6 mph - N/A   Mostly Cloudy
11:49 AM 66.2 °F 53.6 °F 64% 29.90 in 10.0 mi Calm Calm - N/A   Overcast
11:56 AM 66.9 °F 54.0 °F 63% 29.89 in 10.0 mi Calm Calm - N/A   Overcast
12:56 PM 66.0 °F 54.0 °F 65% 29.87 in 10.0 mi WSW 9.2 mph - 0.00 in   Overcast
1:56 PM 66.0 °F 55.0 °F 68% 29.86 in 10.0 mi SW 6.9 mph - N/A   Overcast
2:31 PM 64.4 °F 55.4 °F 73% 29.86 in 10.0 mi SSW 4.6 mph - 0.00 in   Overcast
2:56 PM 61.0 °F 57.0 °F 87% 29.86 in 3.0 mi NW 10.4 mph - 0.00 in Rain Light Rain
3:17 PM 60.8 °F 57.2 °F 88% 29.87 in 1.8 mi NW 5.8 mph - 0.02 in Rain Light Rain
3:56 PM 60.1 °F 57.9 °F 93% 29.87 in 1.8 mi WNW 5.8 mph - 0.03 in Rain Light Rain
4:03 PM 60.8 °F 57.2 °F 88% 29.87 in 2.0 mi WNW 5.8 mph - 0.01 in Rain Light Rain
4:56 PM 59.0 °F 57.9 °F 96% 29.87 in 1.2 mi Calm Calm - 0.04 in Rain Light Rain
5:46 PM 59.0 °F 57.2 °F 94% 29.87 in 5.0 mi Calm Calm - 0.03 in Rain Light Rain
5:56 PM 59.0 °F 57.0 °F 93% 29.87 in 3.0 mi Calm Calm - 0.03 in Rain Light Rain
6:56 PM 57.9 °F 57.0 °F 97% 29.88 in 3.0 mi NW 4.6 mph - 0.02 in Rain Light Rain
7:56 PM 57.9 °F 57.0 °F 97% 29.88 in 3.0 mi Calm Calm - 0.01 in   Overcast
8:03 PM 57.2 °F 57.2 °F 100% 29.89 in 2.5 mi Calm Calm - N/A   Overcast
8:11 PM 57.2 °F 57.2 °F 100% 29.89 in 3.0 mi Calm Calm - N/A   Overcast
8:39 PM 59.0 °F 57.2 °F 94% 29.89 in 4.0 mi Calm Calm - 0.00 in Rain Light Rain
8:56 PM 59.0 °F 57.0 °F 93% 29.89 in 4.0 mi Calm Calm - 0.00 in   Overcast
9:56 PM 59.0 °F 57.0 °F 93% 29.89 in 7.0 mi Calm Calm - N/A   Overcast
10:41 PM 59.0 °F 57.2 °F 94% 29.89 in 2.5 mi Calm Calm - 0.01 in Rain Light Rain
10:56 PM 59.0 °F 57.9 °F 96% 29.88 in 4.0 mi Calm Calm - 0.01 in   Overcast
11:16 PM 57.2 °F 57.2 °F 100% 29.89 in 8.0 mi NW 3.5 mph - N/A   Overcast
11:56 PM 57.9 °F 57.0 °F 97% 29.88 in 10.0 mi Calm Calm - N/A   Overcast